www.pogodaiklimat.ru

Погода и климат >> Архив погоды >> Россия >> Якутия >> Оймякон


АРХИВ ПОГОДЫ в Оймяконе

Время (UTC), дата Ветер
(напр.,м/с)
 
Видим.   Явления Облачность Т
(С)
Тd
(С)
f
(%)
Тe
(С)
Тes
(С)
Комфортность P
(гПа)
Po
(гПа)
Тmin
(С)
Tmax
(С)
R
(мм)
R24
(мм)
S
(см)
00 11.08 С 3 50 км слабый дождь 10/1 1000 м
[Sc Ac As Ci fib]
+15.0 +13.5 91 +14 +17 по сезону 1013.8 929.6
03 11.08 В 2 50 км в посл. час дождь 10/3 1000 м
[Cu med, cong Ac As Ci fib]
+18.7 +13.8 73 +20 +23 тепло 1012.2 929.1
06 11.08 В 3 50 км дым {дождь} 9/3 1000 м
[Cu med, cong Ac As]
+20.2 +13.4 65 +23 +24 комфорт 1010.9 928.3
09 11.08 СВ 2 50 км дым 9/9 1000 м
[Cb cap]
+19.2 +14.2 73 +21 +21 комфорт 1010.9 928.0 +20.3 0.0
12 11.08 З 1 50 км осадки на расстоянии 9/9 1000 м
[Cb cap]
+15.8 +14.0 89 +16 +16 тепло 1011.7 927.8
15 11.08 штиль 0 50 км слабый ливневой дождь 9/6 1000 м
[Cb cap Ac trans]
+14.0 +13.1 94 +14 +14 тепло 1011.8 927.5
18 11.08 штиль 0 10 км туман на расстоянии {ливн. осадки} 9/6 1000 м
[Sc Ac trans]
+12.7 +12.3 97 +12 +12 тепло 1012.3 927.5
21 11.08 В 1 50 км 8/5 100 м
[Sc Ac trans]
+15.0 +13.7 92 +15 +16 тепло 1011.3 927.3 +12.1 0.3
00 12.08 ЮВ 1 50 км в посл. час ливневой дождь 9/9 1000 м
[Cb cap Ac trans]
+16.9 +13.7 81 +18 +19 тепло 1010.1 926.8
03 12.08 Ю 2 50 км 6/4 1000 м
[Cu med, cong Ac trans Ci fib]
+21.8 +13.9 61 +25 +29 комфорт 1007.3 925.5
06 12.08 З 1 50 км в посл. час ливневой дождь 8/5 1000 м
[Cb cap Ac trans Ci fib]
+23.5 +14.6 57 +26 +28 жарко 1005.6 924.4
09 12.08 ЮЗ 1 50 км в посл. час ливневой дождь {гроза} 9/8 1000 м
[Cb cap Ac trans Ci ing]
+19.4 +17.4 88 +23 +23 комфорт 1006.5 924.3 +24.0 4
12 12.08 ЮЗ 1 50 км в посл. час ливневой дождь {гроза} 9/8 1000 м
[Cb cap Ac trans]
+16.8 +15.2 90 +18 +18 тепло 1008.1 924.9
15 12.08 З 1 50 км {ливн. осадки} 8/8 1000 м
[Cb cap]
+14.6 +13.9 96 +15 +15 тепло 1008.9 925.0
18 12.08 штиль 0 50 км местами туман поземный {ливн. осадки} 9/9 1000 м
[Cb cap]
+12.7 +12.5 99 +12 +12 тепло 1009.7 925.2
21 12.08 З 1 50 км в посл. час ливневой дождь 8/8 1000 м
[Cb cap]
+14.6 +13.9 96 +15 +15 тепло 1009.5 925.5 +12.6 0.5
00 13.08 З 3 50 км дым {ливн. осадки} 9/8 1000 м
[Cb cap Ac trans]
+18.8 +13.5 71 +20 +21 тепло 1008.4 925.7
03 13.08 З 5 20 км слабый ливневой дождь 9/8 1000 м
[Cb cap Ac trans]
+19.1 +14.1 73 +20 +21 тепло 1008.4 925.7
06 13.08 З 4
{12}
20 км слабый ливневой дождь 9/8 1000 м
[Cb cap Ac trans]
+16.0 +13.7 86 +15 +16 прохладно 1010.3 926.6
09 13.08 З 3 50 км дым {ливн. осадки} 8/3 1000 м
[Cu Sc Ac lent Ci fib]
+20.2 +14.2 68 +23 +23 комфорт 1009.2 926.7 +20.8 0.1
12 13.08 З 2 20 км гроза без осадков {ливн. осадки} 8/6 600 м
[Cb cap Ac trans Ci fib]
+15.7 +13.5 87 +16 +16 тепло 1012.0 928.1
15 13.08 штиль 0 50 км {гроза} 9/8 1000 м
[Cb cap Ac trans]
+14.7 +13.0 90 +14 +14 тепло 1013.5 929.2
18 13.08 ЮЗ 1 50 км {гроза, ливн. осадки} 9/9 1000 м
[Cb cap]
+14.2 +12.7 91 +14 +14 тепло 1014.8 930.3
21 13.08 З 2 50 км 5/3 1000 м
[Sc Ac trans]
+14.7 +12.1 84 +14 +15 тепло 1016.1 931.6 +13.0 0.1
00 14.08 В 2 50 км 5/5 1000 м
[Sc]
+20.3 +12.1 59 +23 +26 комфорт 1014.9 932.0
03 14.08 З 1 50 км 8/8 1000 м
[Cb cap]
+22.7 +11.9 50 +25 +27 комфорт 1014.3 932.1
06 14.08 Ю 1 50 км {ливн. осадки} 6/6 1000 м
[Cb cap]
+22.9 +12.6 52 +26 +28 жарко 1014.1 932.0
09 14.08 Ю 1 50 км 5/5 1000 м
[Cb cap]
+22.6 +12.2 52 +25 +25 комфорт 1014.4 932.2 +23.6 2
12 14.08 З 1 50 км 8/1 1000 м
[Sc diur, vesp Ci fib]
+13.3 +10.0 80 +13 +13 тепло 1018.5 933.2
15 14.08 штиль 0 50 км местами туман поземный ясно +7.6 +4.8 82 +7 +7 по сезону 1021.2 934.0
18 14.08 штиль 0 1000 м дымка ясно +5.2 +5.0 99 +4 +4 по сезону 1022.4 934.4
21 14.08 Ю 1 50 км {туман} 1/0
[Ci fib]
+10.0 +8.8 92 +9 +11 по сезону 1021.7 935.3 +4.5 0.1
00 15.08 В 1 50 км {туман} 1/1 1000 м
[Cu med, cong]
+18.4 +11.9 66 +20 +27 тепло 1018.1 934.4
03 15.08 В 1 50 км 1/1 1000 м
[Cu med, cong]
+23.2 +13.0 53 +26 +36 жарко 1015.4 933.3
06 15.08 В 2 50 км 3/3 1000 м
[Sc diur, vesp]
+24.8 +10.6 41 +26 +29 жарко 1013.9 932.3
09 15.08 ЮВ 1 50 км 1/1 1000 м
[Sc diur, vesp]
+24.3 +12.1 46 +26 +26 жарко 1013.4 931.6 +25.2
12 15.08 ЮЗ 1 50 км 1/1 1000 м
[Sc]
+11.9 +10.5 91 +12 +12 тепло 1017.1 931.6
15 15.08 штиль 0 50 км 3/3 1000 м
[Sc]
+7.0 +6.8 99 +6 +6 по сезону 1018.9 931.7
18 15.08 штиль 0 50 км местами туман поземный 3/3 1000 м
[Sc]
+4.8 +4.6 99 +4 +4 по сезону 1020.1 932.1
21 15.08 штиль 0 50 км 3/1 1000 м
[Sc Ci fib]
+9.9 +7.6 86 +9 +11 по сезону 1019.1 932.8 +3.8
00 16.08 ЮВ 1 50 км 8/0
[Ci fib]
+19.8 +12.5 63 +23 +29 комфорт 1015.3 932.2
03 16.08 З 3 50 км 8/1 1000 м
[Cu med, cong Ci fib]
+24.6 +12.2 46 +26 +32 жарко 1011.7 930.3
06 16.08 З 2 50 км 3/1 1000 м
[Cu med, cong Ci fib]
+26.8 +12.1 40 +28 +32 жарко 1009.9 929.1
09 16.08 СВ 1 50 км 3/1 1000 м
[Cu med, cong Ci fib]
+24.8 +13.7 50 +27 +27 жарко 1010.0 928.8 +26.8
12 16.08 З 3 50 км 8/1 1000 м
[Sc Ci]
+13.0 +10.3 84 +12 +12 тепло 1012.5 927.7
15 16.08 СВ 1 50 км 9/3 1000 м
[Sc Ac trans Ci fib]
+9.8 +9.0 95 +9 +9 тепло 1013.9 928.0
18 16.08 штиль 0 20 км туман на расстоянии 9/3 1000 м
[Sc Ac trans Ci fib]
+6.4 +6.0 97 +5 +5 по сезону 1015.5 928.5
21 16.08 штиль 0 50 км 8/1 1000 м
[Sc Ac trans Ci fib]
+9.4 +8.8 96 +8 +10 по сезону 1014.9 928.8 +5.5
00 17.08 СВ 2 50 км 9/1 1000 м
[Cu med, cong Ci sp]
+18.2 +12.3 68 +19 +24 тепло 1011.3 928.2
03 17.08 СВ 4 50 км 10/4 1000 м
[Cu med, cong Ci]
+23.5 +12.1 49 +25 +28 комфорт 1008.0 926.5
06 17.08 С 1 50 км 9/8 1000 м
[Cb cap Ci sp]
+21.7 +11.3 52 +24 +25 комфорт 1008.3 926.3
09 17.08 С 1 50 км 9/6 1000 м
[Sc diur, vesp Ac trans Ci fib]
+21.4 +12.4 56 +24 +24 комфорт 1007.8 925.7 +24.3
12 17.08 З 2 50 км 9/9 1000 м
[Sc Ac trans]
+15.1 +13.1 88 +15 +15 тепло 1009.7 925.8
15 17.08 С 1 50 км 9/8 1000 м
[Sc Ac trans]
+13.0 +11.9 93 +13 +13 тепло 1009.4 924.9
18 17.08 С 1 20 км туман на расстоянии 3/3 1000 м
[Sc Ac trans]
+9.8 +9.4 97 +9 +9 тепло 1009.7 924.2
21 17.08 ЮВ 1 50 км осадки на расстоянии {ливн. осадки} 9/8 1000 м
[Cb cap Ac trans]
+13.2 +11.9 92 +13 +13 тепло 1007.8 923.5 +7.7 0.1

 

Местоположение метеостанции Оймякон (Якутия, Россия): широта 63.25 долгота 143.10 высота над уровнем моря 740 м.

В архиве по умолчанию представлена погода в Оймяконе за последнюю неделю. Архивные данные за месяц целиком и за предыдущие месяцы, начиная с января 2011 года, Вы можете получить, выбрав интересующий диапазон дат из раскрывающегося списка и нажав кнопку "Ввод!".

Внимание! Время в таблицах - всемирное. Для получения местного времени необходимо прибавить поправку, которая в Оймяконе равна 10 ч.

Смотрите также архив погоды в соседних городах и на ближайших метеорологических станциях:

Погода в Агаякане (Якутия, Россия) (71 км)
Погода в Юртах (Якутия, Россия) (110 км)
Погода в Делянкире (Якутия, Россия) (140 км)
Погода в Усть-Нере (Якутия, Россия) (142 км)
Погода в Восточной (Якутия, Россия) (175 км)
Погода в Сусумане (Магаданская область, Россия) (258 км)
Погода в Колымской (Магаданская область, Россия) (278 км)
Погода в Уеге (Хабаровский край, Россия) (282 км)
Погода в Теплом Ключе (Якутия, Россия) (322 км)
Погода в Ягодной (Магаданская область, Россия) (340 км)

Пояснения к столбцам:

Ветер - указаны скорость ветра в м/с - средняя за 10 мин, порывы в срок и между сроками (в фигурных скобках) и направление, откуда дует ветер: С - северный, СВ - северо-восточный, В - восточный, ЮВ - юго-восточный, Ю - южный, ЮЗ - юго-западный, З - западный, СЗ - северо-западный.
Видимость - горизонтальная дальность видимости в метрах или километрах. При видимости от 1 до 10 км при отсутствии осадков обычно наблюдается дымка, при ухудшении видимости до 1 км и менее - туман. В сухую погоду видимость может ухудшаться дымом, пылью или мглою.
Явления - указаны атмосферные явления, наблюдавшиеся в срок или в последний час перед сроком; фигурными скобками обозначены явления, наблюдавшиеся между сроками (за 1-3 часа до срока); квадратными скобками обозначены град или гололедные отложения с указанием их диаметра в мм.
Облачность - указаны через наклонную черту общая и нижняя облачность в баллах и высота нижней границы облаков в метрах; квадратными скобками обозначены формы облаков: Ci - перистые, Cs - перисто-слоистые, Cc - перисто-кучевые, Ac - высококучевые, As - высокослоистые, Sc - слоисто-кучевые, Ns - слоисто-дождевые, Cu - кучевые, Cb - кучево-дождевые. Подробнее классификацию облаков см. в Атласе облаков (PDF).
T - Температура воздуха - температура, измеренная на высоте 2 м над землей.
Td - Температура точки росы - температура, при понижении до которой содержащийся в воздухе водяной пар достигнет насыщения.
f - Относительная влажность воздуха - влажноcть воздуха, измеренная на высоте 2 м над землей.
Te - Эффективная температура - температура, которую ощущает одетый по сезону человек в тени. Характеристика душности погоды. При расчете учитывается влияние влажности воздуха и скорости ветра на теплоощущения человека.
Tes - Эффективная температура на солнце - температура, которую ощущает человек, с поправкой на солнечный нагрев. Характеристика знойности погоды. Зависит от высоты солнца над горизонтом, облачности и скорости ветра. Ночью, в пасмурную погоду, а также при ветре 12 м/с и более поправка равна нулю.
P - Атмосферное давление - приведенное к уровню моря атмосферное давление.
Po - Атмосферное давление - измеренное на уровне метеостанции атмосферное давление.
Tmin - Минимальная температура - минимум температуры воздуха на высоте 2 м над землей.
Tmax - Максимальная температура - максимум температуры воздуха на высоте 2 м над землей.
R - Количество осадков - Количество выпавших осадков за период времени, мм. При наведении курсора мыши на число - период времени, за который выпало указанное количество осадков.
R24 - Количество осадков - Количество выпавших осадков за 24 часа, мм.
S - Снежный покров - Высота снежного покрова, см. При наведении курсора мыши на число - состояние снежного покрова и степень покрытия местности в баллах.